View from above orbital plane
|
View from above satellite
|
Ground track
|
The orbit data is extracted from the following two-line orbital elements,
1 2180U 66041B 21016.08658680 .00000017 00000-0 37788-5 0 9995
2 2180 90.1663 38.5973 0081005 69.8634 291.1237 14.00144341786876
Epoch (UTC): | 16 January 2021 02:04:41 |
Eccentricity: | 0.0081005 |
inclination: | 90.1663° |
perigee height: | 834 km |
apogee height: | 952 km |
right ascension of ascending node: | 38.5973° |
argument of perigee: | 69.8634° |
revolutions per day: | 14.00144341 |
mean anomaly at epoch: | 291.1237° |
orbit number at epoch: | 78687 |
The dashed part of the orbit path shows where the satellite is in the earth's shadow,
|
|